{"data":{"norad_id":66856,"intl_designator":"2025-281J","name":"STARLINK-36072","alt_names":[],"object_type":"PAYLOAD","status":"ACTIVE","operator":null,"country":"US","launch_date":"2025-12-02","launch_site_code":"AFETR","launch_vehicle":null,"mission":null,"orbit_class":"UNKNOWN","rcs_meters":null,"size_class":null,"mass_kg":null,"dimensions":null,"purposes":["comms"],"wikipedia_slug":null,"has_3d_model":false,"image_url":null,"decayed_at":null,"tle_current":{"epoch":"2026-09-20T11:49:39.065664Z","epoch_age_seconds":84736,"freshness":"FRESH","line1":"1 66856U 25281J   26263.49281326  .00014993  00000+0  55308-3 0  9992","line2":"2 66856  42.9994 323.7172 0000948 153.9256 206.1644 15.27590205 45971","mean_motion":15.27590205,"eccentricity":9.48e-5,"inclination_deg":42.9994,"raan_deg":323.7172,"arg_perigee_deg":153.9256,"mean_anomaly_deg":206.1644,"bstar":0.00055308,"rev_number":4597,"period_min":94.266118968732,"perigee_km":482.36810122346,"apogee_km":483.66897631361,"semimajor_km":6861.1555387685,"source":"CELESTRAK","updated_at":"2026-09-21T09:00:36.027203Z"}}}